FENGYUN 1C DEB, 46439

Orbit data source: Space-Track

FENGYUN 1C DEB, 46439 is space debris in SSO originally from a launch on Mon, 10 May 1999 UTC launched from the Taiyaun Space Center, China (TSC). Fengyun 1C debris stems from the Chinese weather satellite Fengyun-1C, which was intentionally destroyed by a Chinese anti-satellite missile in 2007. This event dramatically increased the amount of space debris, with thousands of trackable fragments posing hazards to satellites and human spaceflight. The Fengyun 1C debris cloud has become a focal point in discussions about space sustainability and the need for international regulations to prevent the creation of new debris.

Loading next visibility...
Identifier
46439, 1999-025EYU
Orbit
SSO
Country
Flag of CNCN / PRC
Related business
Manufacturer
Unknown
Mission
Spacecraft
Bus & Motor
Unknown
Mass
Unknown
Launch date (UTC)
1999-05-10 (27 years ago)
Launch vehicle
Unknown
Launch site
Taiyaun Space Center, China (TSC)
Object type
Payload
Rocket body
Debris
Shape & HBR
Unknown shape, 0.1 m
Radar Cross Section
Small (<0.1 m²)

Expand to show TLE details & history
Last TLE update: 1 week ago

TLE from 1 week ago
0 FENGYUN 1C DEB
1 46439U 99025EYU 26200.75989759  .00000245  00000-0  11899-3 0  9992
2 46439  98.5428 185.9321 0121318 129.8316 231.3614 14.22585309634775
Epoch: 2026-07-19T18:14Z
TLE epoch observation values (Epoch: 2026-07-19T18:14:15.151Z)
Latitude
-0.00001°
Longitude
-25.1847°
Altitude
874.699 km
Speed
7.387 km/s
True Right ascension
12h 23m 43s
True Declination
0° 00' 00"
Sunlit
Object was in daylight at epoch
Visualization orbit readout
Latitude
Unknown
Longitude
Unknown
Altitude
Unknown
Speed
Unknown
Apparent Right ascension
Unknown
Apparent Declination
Unknown
Sunlit
N/A
Visualization observer readout
Local Sidereal Time
23:25:59
Azimuth
Unknown
Elevation
Unknown
Doppler factor
Unknown
Orbital elements
Apogee altitude
901.02 km
Perigee altitude
726.519 km
Semi-major axis
7,191.906 km
Eccentricity
0.01213
Inclination
98.5428°
RAAN
185.9321°
Arg. of periapsis
129.8316°
True anomaly
230.28577°
Mean anomaly
231.3614°
Eccentric anomaly
230.82256°
Mean motion
3.55858 °/min
Orbital period
101.16 mins
BSTAR
0.00011899
Loading maneuver chart data...
Computing Atmospheric mass density...

Documentation

Showing up to 5 results
|